Weather History for St. Johns, AZ

Change the Weather History Date:

Monday, March 11, 2013

  Actual Average (KSOW) Record (KSOW)
Temperature  
Mean Temperature 32 °F -  
Max Temperature 55 °F 53 °F 75 °F (1989)
Min Temperature 10 °F 31 °F 15 °F (1974)
Degree Days  
Heating Degree Days 32    
Moisture  
Dew Point 19 °F    
Average Humidity 49    
Maximum Humidity 77    
Minimum Humidity 14    
Precipitation  
Precipitation 0.00 in - - ()
Sea Level Pressure  
Sea Level Pressure 30.15 in    
Wind  
Wind Speed 4 mph (SSW)    
Max Wind Speed 12 mph    
Max Gust Speed 20 mph    
Visibility 10 miles    
Events      
Averages and records for this station are not official NWS values.
T = Trace of Precipitation, MM = Missing Value Source: NWS Daily Summary

Daily Weather History Graph

Daily Weather History Graph

Search for Another Location

Airport:

Trip Planner

Search our weather history database for the weather conditions in past years. The results will help you decide how hot, cold, wet, or windy it might be!

Date:

Astronomy

Mar. 11, 2013 Rise Set
Actual Time 6:33 AM MST 6:22 PM MST
Civil Twilight 6:07 AM MST 6:47 PM MST
Nautical Twilight 5:38 AM MST 7:16 PM MST
Astronomical Twilight 5:09 AM MST 7:45 PM MST
Moon 6:09 AM MST (3/11) 6:35 PM MST (3/11)
Length of Visible Light 12h 39m
Length of Day
11h 49m
Waning Crescent, 0% of the Moon is Illuminated
Mar 11
Waning Crescent
Mar 11
New
Mar 19
First Quarter
Mar 27
Full
Apr 2
Last Quarter

Hourly Weather History & Observations

Time (MST) Temp. Windchill Dew Point Humidity Pressure Visibility Wind Dir Wind Speed Gust Speed Precip Events Conditions
12:54 AM 28.9 °F 25.2 °F 21.0 °F 72% 30.22 in 10.0 mi SSW 3.5 mph - N/A   Clear
1:54 AM 30.0 °F 24.1 °F 21.9 °F 72% 30.20 in 10.0 mi South 5.8 mph - N/A   Clear
2:54 AM 28.9 °F 21.1 °F 21.9 °F 75% 30.18 in 10.0 mi SSE 8.1 mph - N/A   Clear
3:54 AM 28.0 °F - 21.0 °F 75% 30.17 in 10.0 mi Calm Calm - N/A   Clear
4:54 AM 26.1 °F - 19.0 °F 75% 30.18 in 10.0 mi Calm Calm - N/A   Clear
5:54 AM 24.1 °F 18.2 °F 18.0 °F 77% 30.18 in 10.0 mi South 4.6 mph - N/A   Clear
6:54 AM 26.1 °F 20.5 °F 19.0 °F 75% 30.20 in 10.0 mi South 4.6 mph - N/A   Clear
7:54 AM 30.0 °F - 21.9 °F 72% 30.22 in 8.0 mi Calm Calm - N/A   Clear
8:54 AM 35.1 °F - 23.0 °F 61% 30.24 in 10.0 mi Calm Calm - N/A   Clear
9:54 AM 42.1 °F - 24.1 °F 49% 30.21 in 10.0 mi Calm Calm - N/A   Clear
10:54 AM 45.0 °F - 19.9 °F 37% 30.19 in 10.0 mi Calm Calm - N/A   Clear
11:54 AM 50.0 °F - 18.0 °F 28% 30.16 in 10.0 mi Calm Calm - N/A   Clear
12:54 PM 53.1 °F - 19.0 °F 26% 30.13 in 10.0 mi Variable 5.8 mph - N/A   Clear
1:54 PM 55.0 °F - 19.0 °F 24% 30.06 in 10.0 mi Variable 4.6 mph - N/A   Clear
2:54 PM 57.9 °F - 17.1 °F 20% 30.05 in 10.0 mi Variable 6.9 mph - N/A   Clear
3:54 PM 57.2 °F - 17.6 °F 21% 30.12 in 10.0 mi West 8.1 mph 19.6 mph N/A   Clear
4:54 PM 57.0 °F - 15.1 °F 19% 30.04 in 10.0 mi NW 11.5 mph - N/A   Clear
5:54 PM 54.0 °F - 15.1 °F 22% 30.08 in 10.0 mi NW 6.9 mph - N/A   Clear
6:54 PM 46.9 °F - 18.0 °F 32% 30.10 in 10.0 mi WNW 3.5 mph - N/A   Clear
7:54 PM 41.0 °F - 21.0 °F 45% 30.12 in 7.0 mi Calm Calm - N/A   Clear
8:54 PM 36.0 °F - 21.9 °F 57% 30.12 in 10.0 mi Calm Calm - N/A   Clear
9:54 PM 36.0 °F 31.1 °F 21.9 °F 57% 30.12 in 10.0 mi SSE 5.8 mph - N/A   Clear
10:54 PM 37.0 °F 32.4 °F 21.0 °F 52% 30.11 in 10.0 mi South 5.8 mph - N/A   Clear
11:54 PM 35.1 °F 28.6 °F 21.0 °F 57% 30.09 in 10.0 mi South 8.1 mph - N/A   Clear